TimeEDT,TemperatureF,Dew PointF,Humidity,Sea Level PressureIn,VisibilityMPH,Wind Direction,Wind SpeedMPH,Gust SpeedMPH,PrecipitationIn,Events,Conditions,WindDirDegrees,DateUTC
12:13 AM,39.7,39.4,99,30.25,2.5,Calm,Calm,-,N/A,,Clear,0,2013-10-10 04:13:00
12:34 AM,40.6,40.6,100,30.24,1.8,Calm,Calm,-,N/A,,Mist,0,2013-10-10 04:34:00
12:53 AM,38.8,38.5,99,30.24,0.5,Calm,Calm,-,N/A,Fog,Fog,0,2013-10-10 04:53:00
1:13 AM,39.7,39.7,100,30.24,2.5,Calm,Calm,-,N/A,,Clear,0,2013-10-10 05:13:00
1:34 AM,37.9,37.9,100,30.24,2.0,Calm,Calm,-,N/A,,Clear,0,2013-10-10 05:34:00
1:53 AM,38.7,38.7,100,30.23,3.0,Calm,Calm,-,N/A,,Clear,0,2013-10-10 05:53:00
2:13 AM,38.7,38.7,100,30.23,10.0,Calm,Calm,-,N/A,,Clear,0,2013-10-10 06:13:00
2:34 AM,38.5,38.5,100,30.23,10.0,Calm,Calm,-,N/A,,Clear,0,2013-10-10 06:34:00
2:53 AM,36.9,36.9,100,30.23,10.0,Calm,Calm,-,N/A,,Clear,0,2013-10-10 06:53:00
3:13 AM,37.9,37.9,100,30.23,7.0,Calm,Calm,-,N/A,,Clear,0,2013-10-10 07:13:00
3:33 AM,37.4,37.4,100,30.23,7.0,Calm,Calm,-,N/A,,Clear,0,2013-10-10 07:33:00
3:53 AM,37.9,37.9,100,30.23,10.0,Calm,Calm,-,N/A,,Clear,0,2013-10-10 07:53:00
4:14 AM,37.8,37.8,100,30.23,7.0,Calm,Calm,-,N/A,,Clear,0,2013-10-10 08:14:00
4:33 AM,37.9,37.9,100,30.22,7.0,Calm,Calm,-,N/A,,Clear,0,2013-10-10 08:33:00
4:53 AM,36.3,36.3,100,30.22,5.0,Calm,Calm,-,N/A,,Clear,0,2013-10-10 08:53:00
5:14 AM,37.6,37.6,100,30.23,7.0,Calm,Calm,-,N/A,,Clear,0,2013-10-10 09:14:00
5:33 AM,36.5,36.5,100,30.23,5.0,Calm,Calm,-,N/A,,Clear,0,2013-10-10 09:33:00
5:53 AM,37.6,37.6,100,30.23,7.0,Calm,Calm,-,N/A,,Clear,0,2013-10-10 09:53:00
6:14 AM,36.7,36.7,100,30.23,1.2,Calm,Calm,-,N/A,,Mist,0,2013-10-10 10:14:00
6:33 AM,36.5,36.5,100,30.23,5.0,Calm,Calm,-,N/A,,Clear,0,2013-10-10 10:33:00
6:53 AM,35.6,35.6,100,30.23,10.0,Calm,Calm,-,N/A,,Clear,0,2013-10-10 10:53:00
7:14 AM,35.2,35.2,100,30.23,10.0,Calm,Calm,-,N/A,,Clear,0,2013-10-10 11:14:00
7:33 AM,36.1,36.1,100,30.23,7.0,Calm,Calm,-,N/A,,Clear,0,2013-10-10 11:33:00
7:53 AM,37.9,37.9,100,30.23,0.8,Calm,Calm,-,N/A,,Overcast,0,2013-10-10 11:53:00
8:13 AM,37.6,37.6,100,30.23,0.5,Calm,Calm,-,N/A,Fog,Fog,0,2013-10-10 12:13:00
8:33 AM,41.0,41.0,100,30.24,0.2,Calm,Calm,-,N/A,Fog,Fog,0,2013-10-10 12:33:00
8:54 AM,44.4,44.4,100,30.24,0.2,Calm,Calm,-,N/A,Fog,Fog,0,2013-10-10 12:54:00
9:13 AM,45.9,45.9,100,30.24,0.2,Calm,Calm,-,N/A,Fog,Fog,0,2013-10-10 13:13:00
9:33 AM,47.5,47.5,100,30.24,0.2,Calm,Calm,-,N/A,Fog,Fog,0,2013-10-10 13:33:00
9:54 AM,49.1,48.7,99,30.25,0.2,Calm,Calm,-,N/A,Fog,Fog,0,2013-10-10 13:54:00
10:13 AM,50.9,50.7,99,30.24,0.2,Calm,Calm,-,N/A,Fog,Fog,0,2013-10-10 14:13:00
10:33 AM,54.5,54.3,99,30.24,2.0,Calm,Calm,-,N/A,,Mostly Cloudy,0,2013-10-10 14:33:00
10:54 AM,57.9,55.8,92,30.24,10.0,Calm,Calm,-,N/A,,Clear,0,2013-10-10 14:54:00
11:13 AM,61.7,54.1,76,30.23,10.0,SE,3.5,-,N/A,,Clear,140,2013-10-10 15:13:00
11:33 AM,63.3,50.4,63,30.23,10.0,SE,3.5,-,N/A,,Clear,130,2013-10-10 15:33:00
11:54 AM,65.8,46.6,50,30.23,10.0,SSE,3.5,-,N/A,,Clear,160,2013-10-10 15:54:00
12:13 PM,67.1,41.4,39,30.23,10.0,South,4.6,-,N/A,,Clear,170,2013-10-10 16:13:00
12:33 PM,67.3,43.5,42,30.23,10.0,SE,3.5,-,N/A,,Clear,140,2013-10-10 16:33:00
12:54 PM,67.5,45.0,44,30.23,10.0,SSE,8.1,-,N/A,,Clear,150,2013-10-10 16:54:00
1:13 PM,68.4,44.6,42,30.22,10.0,ESE,4.6,-,N/A,,Clear,110,2013-10-10 17:13:00
1:33 PM,68.5,43.5,40,30.22,10.0,Calm,Calm,-,N/A,,Clear,0,2013-10-10 17:33:00
1:54 PM,68.9,43.3,40,30.21,10.0,South,3.5,-,N/A,,Clear,190,2013-10-10 17:54:00
2:13 PM,69.3,43.3,39,30.20,10.0,SE,4.6,-,N/A,,Clear,130,2013-10-10 18:13:00
2:33 PM,70.0,41.9,36,30.19,10.0,South,5.8,-,N/A,,Clear,170,2013-10-10 18:33:00
2:54 PM,70.0,41.9,36,30.18,10.0,SSE,9.2,-,N/A,,Clear,150,2013-10-10 18:54:00
3:13 PM,70.2,40.6,34,30.18,10.0,SSE,4.6,-,N/A,,Clear,150,2013-10-10 19:13:00
3:33 PM,71.1,41.2,34,30.18,10.0,South,6.9,-,N/A,,Clear,190,2013-10-10 19:33:00
3:54 PM,70.7,38.8,31,30.18,10.0,SW,5.8,-,N/A,,Clear,230,2013-10-10 19:54:00
4:13 PM,70.7,37.6,30,30.17,10.0,South,3.5,-,N/A,,Clear,170,2013-10-10 20:13:00
4:33 PM,70.7,37.2,29,30.17,10.0,Calm,Calm,-,N/A,,Clear,0,2013-10-10 20:33:00
4:54 PM,70.9,36.5,28,30.17,7.0,Calm,Calm,-,N/A,,Clear,0,2013-10-10 20:54:00
5:13 PM,70.0,35.4,28,30.16,10.0,SE,3.5,-,N/A,,Clear,130,2013-10-10 21:13:00
5:33 PM,69.3,37.0,31,30.16,10.0,SSE,3.5,-,N/A,,Clear,160,2013-10-10 21:33:00
5:54 PM,68.2,37.4,32,30.16,10.0,SSE,4.6,-,N/A,,Clear,160,2013-10-10 21:54:00
6:13 PM,67.1,39.6,36,30.16,10.0,Calm,Calm,-,N/A,,Clear,0,2013-10-10 22:13:00
6:33 PM,65.1,40.5,40,30.15,10.0,SSE,3.5,-,N/A,,Clear,160,2013-10-10 22:33:00
6:53 PM,61.5,43.0,51,30.15,10.0,Calm,Calm,-,N/A,,Clear,0,2013-10-10 22:53:00
7:13 PM,59.7,42.3,52,30.15,10.0,Calm,Calm,-,N/A,,Clear,0,2013-10-10 23:13:00
7:33 PM,56.3,43.3,62,30.16,10.0,Calm,Calm,-,N/A,,Clear,0,2013-10-10 23:33:00
7:53 PM,49.1,44.4,84,30.15,10.0,Calm,Calm,-,N/A,,Clear,0,2013-10-10 23:53:00
8:13 PM,48.0,43.7,85,30.15,10.0,Calm,Calm,-,N/A,,Clear,0,2013-10-11 00:13:00
8:33 PM,46.0,42.8,88,30.15,10.0,Calm,Calm,-,N/A,,Clear,0,2013-10-11 00:33:00
8:53 PM,48.0,43.9,86,30.15,10.0,Calm,Calm,-,N/A,,Clear,0,2013-10-11 00:53:00
9:13 PM,44.4,42.1,91,30.15,10.0,Calm,Calm,-,N/A,,Clear,0,2013-10-11 01:13:00
9:33 PM,45.3,42.4,90,30.15,10.0,ESE,3.5,-,N/A,,Clear,120,2013-10-11 01:33:00
9:53 PM,45.1,41.9,88,30.15,7.0,Calm,Calm,-,N/A,,Clear,0,2013-10-11 01:53:00
10:13 PM,45.1,42.3,90,30.15,10.0,SE,3.5,-,N/A,,Clear,130,2013-10-11 02:13:00
10:34 PM,45.1,41.7,88,30.15,10.0,Calm,Calm,-,N/A,,Clear,0,2013-10-11 02:34:00
10:53 PM,43.7,41.7,93,30.15,10.0,Calm,Calm,-,N/A,,Clear,0,2013-10-11 02:53:00
11:13 PM,41.5,39.7,93,30.15,10.0,Calm,Calm,-,N/A,,Clear,0,2013-10-11 03:13:00
11:34 PM,41.2,39.6,94,30.16,10.0,Calm,Calm,-,N/A,,Clear,0,2013-10-11 03:34:00
11:53 PM,40.5,39.7,97,30.16,10.0,Calm,Calm,-,N/A,,Clear,0,2013-10-11 03:53:00